DW8266 Weather Reports


Display with metric or nautical units.
time (UTC)temp
F
wind
direction
speed
MPH
gust
MPH
rain 1hr
in
rain 24hr
in
rain mn
in
humidity
%
barometer
mb
20171124053236 51 22 0.0 0.0 0.00 0.00 0.00 85 1016.9
20171124052936 51 22 0.0 0.0 0.00 0.00 0.00 85 1018.2
20171124052231 51 22 0.0 0.0 0.00 0.00 0.00 84 1017.0
20171124051409 51 22 0.0 0.0 0.00 0.00 0.00 85 1018.4
20171124051229 51 22 0.0 0.0 0.00 0.00 0.00 85 1017.1
20171124050221 52 22 0.0 0.0 0.00 0.00 0.00 85 1017.1
20171124045931 51 22 0.0 0.0 0.00 0.00 0.00 85 1018.4
20171124045220 52 22 0.0 0.0 0.00 0.00 0.00 85 1017.1
20171124044447 52 22 0.0 0.0 0.00 0.00 0.00 86 1018.6
20171124044225 53 22 0.0 0.0 0.00 0.00 0.00 87 1017.3
20171124044219 52 22 0.0 0.0 0.00 0.00 0.00 87 1017.3
20171124043217 53 22 0.0 0.0 0.00 0.00 0.00 87 1017.3
20171124042919 52 22 0.0 0.0 0.00 0.00 0.00 87 1018.5
20171124042331 53 22 0.0 0.0 0.00 0.00 0.00 87 1017.3
20171124041340 53 22 0.0 0.0 0.00 0.00 0.00 87 1018.6
20171124040213 53 22 0.0 0.0 0.00 0.00 0.00 87 1017.3
20171124035914 53 22 0.0 0.0 0.00 0.00 0.00 86 1018.6
20171124035215 53 22 0.0 0.0 0.00 0.00 0.00 86 1017.2
20171124034335 53 22 0.0 0.0 0.00 0.00 0.00 85 1018.5
20171124034156 53 22 0.0 0.0 0.00 0.00 0.00 85 1017.3
20171124034132 54 22 0.0 0.0 0.00 0.00 0.00 85 1017.3
20171124032817 54 22 0.0 0.0 0.00 0.00 0.00 85 1018.6
20171124032130 54 22 0.0 0.0 0.00 0.00 0.00 84 1017.4
20171124031613 54 22 0.0 0.0 0.00 0.00 0.00 83 1018.7
20171124031130 54 22 0.0 0.0 0.00 0.00 0.00 83 1017.5
20171124030117 54 22 0.0 0.0 0.00 0.00 0.00 81 1017.4
20171124025812 54 22 0.0 0.0 0.00 0.00 0.00 80 1018.7
20171124025116 54 22 0.0 0.0 0.00 0.00 0.00 77 1017.4
20171124024253 54 22 0.0 0.0 0.00 0.00 0.00 78 1018.5
20171124024115 55 22 0.0 0.0 0.00 0.00 0.00 77 1017.2
20171124023112 55 22 0.0 0.0 0.00 0.00 0.00 77 1017.3
20171124022801 54 22 0.0 0.0 0.00 0.00 0.00 75 1018.6
20171124022109 55 22 0.0 0.0 0.00 0.00 0.00 71 1017.4
20171124021247 55 22 0.0 0.0 0.00 0.00 0.00 73 1018.7
20171124021059 55 22 0.0 0.0 0.00 0.00 0.00 73 1017.4
20171124020105 56 22 0.0 0.0 0.00 0.00 0.00 75 1017.4
20171124015703 55 22 0.0 0.0 0.00 0.00 0.00 75 1018.7
20171124015057 56 22 0.0 0.0 0.00 0.00 0.00 71 1017.4
20171124015053 56 22 0.0 0.0 0.00 0.00 0.00 74 1017.5
20171124014217 56 22 0.0 0.0 0.00 0.00 0.00 71 1018.7
20171124014202 56 22 0.0 0.0 0.00 0.00 0.00 65 1017.4
20171124013206 57 22 0.0 0.0 0.00 0.00 0.00 63 1017.4
20171124012723 56 22 0.0 0.0 0.00 0.00 0.00 63 1018.6
20171124011202 57 22 0.0 0.0 0.00 0.00 0.00 63 1018.5
20171124011044 57 22 0.0 0.0 0.00 0.00 0.00 63 1017.3
20171124010050 58 22 0.0 0.0 0.00 0.00 0.00 63 1017.1
20171124005657 58 22 0.0 0.0 0.00 0.00 0.00 63 1018.3
20171124005041 58 22 0.0 0.0 0.00 0.00 0.00 62 1017.1
20171124004112 59 22 0.0 0.0 0.00 0.00 0.00 64 1018.3
20171124004041 59 22 0.0 0.0 0.00 0.00 0.00 63 1017.0
20171124003039 60 22 0.0 0.0 0.00 0.00 0.00 54 1017.1
20171124002658 59 22 0.0 0.0 0.00 0.00 0.00 53 1018.3
20171124002036 60 22 0.0 0.0 0.00 0.00 0.00 54 1017.0
20171124001049 60 22 0.0 0.0 0.00 0.00 0.00 53 1018.3
20171124001033 61 22 0.0 0.0 0.00 0.00 0.00 53 1017.0
20171124000045 62 22 0.0 0.0 0.00 0.00 0.00 53 1016.9
20171123235520 61 22 0.0 0.0 0.00 0.00 0.00 47 1018.1
20171123235034 62 22 0.0 0.0 0.00 0.00 0.00 46 1016.8
20171123234047 62 22 0.0 0.0 0.00 0.00 0.00 45 1018.0
20171123234034 63 22 0.0 0.0 0.00 0.00 0.00 45 1016.8
20171123233030 64 22 0.0 0.0 0.00 0.00 0.00 44 1016.7
20171123232521 64 22 0.0 0.0 0.00 0.00 0.00 42 1017.9
20171123232031 65 22 0.0 0.0 0.00 0.00 0.00 42 1016.7
20171123231029 65 22 0.0 0.0 0.00 0.00 0.00 41 1016.7
20171123231002 65 22 0.0 0.0 0.00 0.00 0.00 41 1018.0
20171123230014 66 22 0.0 1.0 0.00 0.00 0.00 41 1016.8
20171123225457 66 22 0.0 1.0 0.00 0.00 0.00 42 1018.0
20171123225003 66 22 0.0 1.0 0.00 0.00 0.00 41 1016.8
20171123223958 67 24 0.0 1.0 0.00 0.00 0.00 39 1016.8
20171123223934 67 24 0.0 1.0 0.00 0.00 0.00 39 1018.1
20171123222934 67 24 0.0 2.0 0.00 0.00 0.00 39 1016.9
20171123222434 67 345 0.0 2.0 0.00 0.00 0.00 39 1018.2
20171123221903 67 339 0.0 3.0 0.00 0.00 0.00 39 1016.9
20171123221001 66 339 0.0 3.0 0.00 0.00 0.00 39 1018.2
20171123220904 67 339 1.0 3.0 0.00 0.00 0.00 39 1017.0
20171123215851 67 91 0.0 3.0 0.00 0.00 0.00 40 1017.0
20171123215413 67 90 0.0 2.0 0.00 0.00 0.00 43 1018.1
20171123214831 67 90 1.0 2.0 0.00 0.00 0.00 39 1016.9
20171123213905 67 90 0.0 2.0 0.00 0.00 0.00 37 1018.2
20171123213827 67 90 0.0 2.0 0.00 0.00 0.00 39 1017.0
20171123212815 67 91 0.0 2.0 0.00 0.00 0.00 38 1017.1
20171123212351 67 90 0.0 2.0 0.00 0.00 0.00 38 1018.3
20171123211805 68 90 0.0 2.0 0.00 0.00 0.00 39 1017.2
20171123210814 66 91 0.0 3.0 0.00 0.00 0.00 41 1018.4
20171123210805 66 91 1.0 3.0 0.00 0.00 0.00 41 1017.2
20171123205805 67 119 0.0 2.0 0.00 0.00 0.00 40 1017.2
20171123205300 66 119 0.0 3.0 0.00 0.00 0.00 41 1018.5
20171123204806 66 119 1.0 3.0 0.00 0.00 0.00 41 1017.2
20171123203832 66 115 0.0 2.0 0.00 0.00 0.00 39 1018.5
20171123203756 67 115 0.0 2.0 0.00 0.00 0.00 38 1017.2
20171123202752 67 345 1.0 3.0 0.00 0.00 0.00 39 1017.3
20171123202318 66 341 0.0 2.0 0.00 0.00 0.00 38 1018.6
20171123201746 67 38 0.0 4.0 0.00 0.00 0.00 39 1017.4
20171123200832 66 348 0.0 2.0 0.00 0.00 0.00 37 1018.7
20171123200750 67 316 0.0 2.0 0.00 0.00 0.00 40 1017.5
20171123195730 66 351 1.0 3.0 0.00 0.00 0.00 42 1017.6
20171123195220 65 360 0.0 3.0 0.00 0.00 0.00 40 1019.1
20171123194722 65 315 1.0 3.0 0.00 0.00 0.00 41 1017.9
20171123193802 65 300 0.0 3.0 0.00 0.00 0.00 40 1019.3
20171123193723 66 300 0.0 4.0 0.00 0.00 0.00 40 1018.0
20171123192722 65 300 1.0 4.0 0.00 0.00 0.00 48 1018.2
20171123192249 64 305 0.0 3.0 0.00 0.00 0.00 41 1019.6
20171123191658 64 302 1.0 4.0 0.00 0.00 0.00 43 1018.4
20171123190721 64 60 0.0 3.0 0.00 0.00 0.00 42 1019.8
20171123190700 64 60 1.0 3.0 0.00 0.00 0.00 42 1018.5
20171123185652 64 306 1.0 4.0 0.00 0.00 0.00 43 1018.7
20171123185144 63 71 0.0 3.0 0.00 0.00 0.00 49 1020.0
20171123184654 62 70 1.0 4.0 0.00 0.00 0.00 47 1018.8
20171123183719 62 294 1.0 5.0 0.00 0.00 0.00 46 1020.3
20171123183646 62 294 1.0 5.0 0.00 0.00 0.00 45 1019.1
20171123182647 63 298 1.0 4.0 0.00 0.00 0.00 46 1019.4
20171123182110 61 298 1.0 5.0 0.00 0.00 0.00 49 1020.8
20171123181625 62 92 1.0 5.0 0.00 0.00 0.00 48 1019.7
20171123180625 62 74 0.0 2.0 0.00 0.00 0.00 51 1020.0
20171123180600 61 74 0.0 2.0 0.00 0.00 0.00 52 1021.2
20171123175606 61 74 0.0 2.0 0.00 0.00 0.00 55 1020.1
20171123175043 60 74 0.0 2.0 0.00 0.00 0.00 52 1021.5
20171123174605 60 74 0.0 2.0 0.00 0.00 0.00 54 1020.3
20171123173615 59 74 0.0 2.0 0.00 0.00 0.00 52 1021.6
20171123173605 60 74 0.0 2.0 0.00 0.00 0.00 52 1020.3
20171123172602 60 74 1.0 3.0 0.00 0.00 0.00 53 1020.6
20171123172048 60 75 0.0 2.0 0.00 0.00 0.00 57 1022.1
20171123171602 59 75 0.0 1.0 0.00 0.00 0.00 57 1020.9
20171123170538 59 75 0.0 2.0 0.00 0.00 0.00 52 1021.1
20171123170500 59 75 0.0 2.0 0.00 0.00 0.00 52 1022.4
20171123165538 59 75 0.0 2.0 0.00 0.00 0.00 58 1021.2
20171123165057 58 76 0.0 2.0 0.00 0.00 0.00 55 1022.6
20171123164537 58 76 1.0 3.0 0.00 0.00 0.00 55 1021.4
20171123163524 55 71 0.0 2.0 0.00 0.00 0.00 57 1022.7
20171123163516 56 71 1.0 2.0 0.00 0.00 0.00 57 1021.4
20171123162516 56 75 1.0 3.0 0.00 0.00 0.00 58 1021.4
20171123162010 55 74 0.0 2.0 0.00 0.00 0.00 61 1022.7
20171123161516 55 74 1.0 4.0 0.00 0.00 0.00 62 1021.4
20171123160516 54 69 1.0 5.0 0.00 0.00 0.00 61 1021.5
20171123160445 54 69 0.0 5.0 0.00 0.00 0.00 62 1022.8
20171123155518 53 80 1.0 5.0 0.00 0.00 0.00 61 1021.4
20171123154936 53 79 1.0 4.0 0.00 0.00 0.00 62 1022.7
20171123154454 53 74 2.0 5.0 0.00 0.00 0.00 63 1021.4
20171123153454 52 91 1.0 5.0 0.00 0.00 0.00 64 1021.4
20171123153434 52 91 1.0 5.0 0.00 0.00 0.00 65 1022.7
20171123152435 52 96 2.0 5.0 0.00 0.00 0.00 67 1021.3
20171123151920 51 76 1.0 5.0 0.00 0.00 0.00 67 1022.6
20171123151435 51 103 1.0 5.0 0.00 0.00 0.00 68 1021.3
20171123150434 50 86 1.0 3.0 0.00 0.00 0.00 71 1021.3
20171123150406 49 86 1.0 3.0 0.00 0.00 0.00 71 1022.6
20171123145431 49 88 1.0 3.0 0.00 0.00 0.00 73 1021.4
20171123144829 48 79 1.0 3.0 0.00 0.00 0.00 74 1022.8
20171123144431 48 318 1.0 2.0 0.00 0.00 0.00 75 1021.4
20171123143431 47 294 1.0 2.0 0.00 0.00 0.00 77 1021.4
20171123143258 47 294 0.0 2.0 0.00 0.00 0.00 78 1022.7
20171123142421 46 291 0.0 2.0 0.00 0.00 0.00 80 1021.4
20171123141833 45 291 0.0 3.0 0.00 0.00 0.00 81 1022.6
20171123141410 45 291 0.0 3.0 0.00 0.00 0.00 81 1021.3
20171123140402 44 290 0.0 1.0 0.00 0.00 0.00 82 1021.3
20171123140227 44 290 0.0 1.0 0.00 0.00 0.00 82 1022.5
20171123135402 44 290 0.0 1.0 0.00 0.00 0.00 84 1021.2
20171123134750 43 290 0.0 1.0 0.00 0.00 0.00 84 1022.4
20171123134349 43 290 0.0 1.0 0.00 0.00 0.00 84 1021.1
20171123133334 42 290 0.0 1.0 0.00 0.00 0.00 84 1021.0
20171123133207 42 290 0.0 1.0 0.00 0.00 0.00 84 1022.2
20171123132316 42 290 0.0 1.0 0.00 0.00 0.00 84 1021.1
20171123131701 42 290 0.0 1.0 0.00 0.00 0.00 84 1022.3
20171123131314 42 290 0.0 1.0 0.00 0.00 0.00 84 1021.2
20171123130315 42 290 0.0 1.0 0.00 0.00 0.00 83 1021.1
20171123130228 42 290 0.0 1.0 0.00 0.00 0.00 83 1022.3
20171123125314 42 290 0.0 1.0 0.00 0.00 0.00 83 1021.0
20171123124650 42 290 0.0 1.0 0.00 0.00 0.00 83 1022.2
20171123124312 42 290 0.0 1.0 0.00 0.00 0.00 83 1020.9
20171123123312 42 290 0.0 0.0 0.00 0.00 0.00 83 1020.9
20171123123112 42 290 0.0 0.0 0.00 0.00 0.00 83 1022.1
20171123122304 43 290 0.0 0.0 0.00 0.00 0.00 82 1020.8
20171123121607 42 290 0.0 0.0 0.00 0.00 0.00 82 1022.1
20171123121304 43 290 0.0 0.0 0.00 0.00 0.00 82 1020.8
20171123120304 43 290 0.0 1.0 0.00 0.00 0.00 82 1020.8
20171123120139 43 290 0.0 0.0 0.00 0.00 0.00 82 1022.0
20171123115305 43 290 0.0 1.0 0.00 0.00 0.00 80 1020.8
20171123114601 43 290 0.0 1.0 0.00 0.00 0.00 80 1022.0
20171123114306 43 290 0.0 1.0 0.00 0.00 0.00 80 1020.8
20171123113258 44 290 0.0 1.0 0.00 0.00 0.00 79 1020.7
20171123113036 43 290 0.0 1.0 0.00 0.00 0.00 79 1021.9
20171123112236 44 290 0.0 2.0 0.00 0.00 0.00 79 1020.7
20171123111601 43 290 0.0 2.0 0.00 0.00 0.00 78 1021.9
20171123111217 44 290 0.0 2.0 0.00 0.00 0.00 78 1020.7
20171123110157 44 290 0.0 2.0 0.00 0.00 0.00 78 1020.8
20171123110037 44 290 0.0 1.0 0.00 0.00 0.00 78 1022.1
20171123105137 44 290 0.0 2.0 0.00 0.00 0.00 78 1020.8
20171123104511 44 290 0.0 2.0 0.00 0.00 0.00 78 1021.9
20171123104118 44 290 0.0 2.0 0.00 0.00 0.00 78 1020.6
20171123103119 44 290 0.0 2.0 0.00 0.00 0.00 78 1020.6
20171123102945 44 290 0.0 2.0 0.00 0.00 0.00 78 1021.9
20171123102107 45 290 0.0 2.0 0.00 0.00 0.00 77 1020.5
20171123101532 44 290 0.0 2.0 0.00 0.00 0.00 77 1021.8
20171123101047 45 290 0.0 2.0 0.00 0.00 0.00 77 1020.6
20171123100036 45 290 0.0 1.0 0.00 0.00 0.00 77 1020.7
20171123095940 45 290 0.0 1.0 0.00 0.00 0.00 77 1021.9
20171123095022 46 290 0.0 2.0 0.00 0.00 0.00 76 1020.7
20171123094410 45 290 0.0 2.0 0.00 0.00 0.00 75 1021.9
20171123094019 46 290 0.0 2.0 0.00 0.00 0.00 75 1020.7
20171123093019 46 290 0.0 2.0 0.00 0.00 0.00 74 1020.6
20171123092958 46 290 0.0 2.0 0.00 0.00 0.00 74 1021.8
20171123091959 46 290 0.0 2.0 0.00 0.00 0.00 74 1020.6
20171123091431 46 290 0.0 2.0 0.00 0.00 0.00 73 1021.9
20171123090941 46 290 0.0 2.0 0.00 0.00 0.00 73 1020.7
20171123085939 47 290 0.0 2.0 0.00 0.00 0.00 72 1020.7
20171123085851 46 290 0.0 2.0 0.00 0.00 0.00 72 1021.9
20171123084939 47 290 0.0 2.0 0.00 0.00 0.00 72 1020.8
20171123084435 46 290 0.0 2.0 0.00 0.00 0.00 72 1022.1
20171123083929 47 290 1.0 2.0 0.00 0.00 0.00 72 1020.9
20171123082928 47 290 0.0 2.0 0.00 0.00 0.00 71 1021.0
20171123082834 47 290 0.0 2.0 0.00 0.00 0.00 71 1022.2
20171123081927 47 290 0.0 2.0 0.00 0.00 0.00 71 1021.1
20171123081327 47 290 0.0 2.0 0.00 0.00 0.00 71 1022.4
20171123080926 48 290 0.0 2.0 0.00 0.00 0.00 71 1021.3
20171123075917 48 291 0.0 3.0 0.00 0.00 0.00 70 1021.3
20171123075854 47 291 0.0 3.0 0.00 0.00 0.00 70 1022.5
20171123074900 48 291 0.0 2.0 0.00 0.00 0.00 70 1021.3
20171123074338 47 296 0.0 1.0 0.00 0.00 0.00 70 1022.6
20171123073858 48 296 0.0 2.0 0.00 0.00 0.00 70 1021.3
20171123072900 48 296 0.0 2.0 0.00 0.00 0.00 70 1021.4
20171123072726 48 296 0.0 2.0 0.00 0.00 0.00 70 1022.6
20171123071856 49 296 0.0 2.0 0.00 0.00 0.00 70 1021.4
20171123071255 48 296 0.0 2.0 0.00 0.00 0.00 70 1022.7
20171123070856 49 296 0.0 1.0 0.00 0.00 0.00 70 1021.5
20171123065853 49 296 0.0 2.0 0.00 0.00 0.00 69 1021.5
20171123065712 49 296 0.0 2.0 0.00 0.00 0.00 69 1022.8
20171123064852 49 296 1.0 2.0 0.00 0.00 0.00 68 1021.5
20171123064252 49 294 0.0 2.0 0.00 0.00 0.00 68 1022.9
20171123063855 49 295 0.0 2.0 0.00 0.00 0.00 68 1021.6
20171123062833 50 296 0.0 2.0 0.00 0.00 0.00 68 1021.8
20171123062737 49 296 0.0 2.0 0.00 0.00 0.00 68 1023.0
20171123061832 50 296 0.0 2.0 0.00 0.00 0.00 69 1021.9
20171123061217 49 296 0.0 2.0 0.00 0.00 0.00 69 1023.2
20171123060830 50 296 0.0 2.0 0.00 0.00 0.00 69 1022.0
20171123055830 50 296 0.0 2.0 0.00 0.00 0.00 70 1022.0
20171123055709 50 296 0.0 2.0 0.00 0.00 0.00 70 1023.3
20171123054818 50 296 0.0 2.0 0.00 0.00 0.00 70 1022.3
20171123054202 50 296 0.0 2.0 0.00 0.00 0.00 70 1023.7
20171123053817 50 296 0.0 2.0 0.00 0.00 0.00 70 1022.5